The Canyons, USA 16 day weather forecast

Slopes altitude range 2075 m - 3045m

Number of lifts: 19 Pistes: 182km

In some cases the lift and piste totals shown are for the ski domain (e.g. Three Valleys) rather than individual resort (e.g. Courchevel)

Overview

The 16 day weather forecast is fully updated 4 times every day.

    • Sat 20 APR 2019
    • Sat 20
    • 6C 7C
    • Sun 21 APR 2019
    • Sun 21
    • 4C 7C
    • Mon 22 APR 2019
    • Mon 22
    • 2C 3C
    • Tue 23 APR 2019
    • Tue 23
    • 1C 2C
    • Wed 24 APR 2019
    • Wed 24
    • 3C 5C
    • Thu 25 APR 2019
    • Thu 25
    • 5C 6C
    • Fri 26 APR 2019
    • Fri 26
    • 8C 9C
    • Sat 27 APR 2019
    • Sat 27
    • 6C 10C
    • Sun 28 APR 2019
    • Sun 28
    • 6C 7C
    • Mon 29 APR 2019
    • Mon 29
    • 5C 8C
    • Tue 30 APR 2019
    • Tue 30
    • 8C 16C
    • Wed 01 MAY 2019
    • Wed 01
    • 8C 17C
    • Thu 02 MAY 2019
    • Thu 02
    • 5C 16C
    • Fri 03 MAY 2019
    • Fri 03
    • 5C 13C
    • Sat 04 MAY 2019
    • Sat 04
    • 5C 10C
    • Sun 05 MAY 2019
    • Sun 05
    • 7C 11C

Date:

Time Type 0°C level Temp Chill Snow Cloud Speed Gust Dir Press
3:00 3965m 8°C 8_4 0cm 46% 4mph 4mph 1011mB
6:00 3957m 7°C 7_7 0cm 52% 7mph 8mph 1011mB
9:00 3891m 6°C 6_7 0cm 67% 7mph 8mph 1010mB
12:00 3838m 7°C 7_7 0cm 74% 7mph 9mph 1009mB
15:00 3788m 11°C 11_7 0cm 69% 7mph 9mph 1008mB
18:00 3678m 16°C 16_12 0cm 50% 12mph 17mph 1006mB
21:00 3714m 16°C 16_17 0cm 21% 17mph 20mph 1004mB
0:00 3695m 15°C 15_12 0cm 44% 12mph 18mph 1002mB
3:00 3568m 9°C 9_5 0cm 72% 5mph 7mph 1003mB
6:00 3564m 8°C 8_7 0cm 77% 7mph 8mph 1005mB
9:00 3376m 5°C 5_4 0cm 74% 4mph 5mph 1005mB
12:00 3245m 7°C 7_5 0cm 78% 5mph 6mph 1006mB
15:00 3090m 8°C 8_4 0cm 73% 4mph 7mph 1007mB
18:00 3165m 11°C 11_8 0cm 51% 8mph 11mph 1009mB
21:00 3079m 9°C 9_7 0cm 62% 7mph 7mph 1009mB
0:00 2883m 6°C 6_8 0cm 80% 8mph 9mph 1010mB
3:00 2723m 4°C 4_5 0cm 97% 5mph 7mph 1013mB
6:00 2660m 3°C 3_4 0cm 94% 4mph 4mph 1015mB
9:00 2586m 2°C 2_3 0cm 100% 3mph 3mph 1015mB
12:00 2604m 3°C 3_3 0cm 100% 3mph 2mph 1016mB
15:00 2621m 4°C 4_4 0cm 99% 4mph 4mph 1018mB
18:00 2734m 6°C 6_6 0cm 98% 6mph 7mph 1018mB
21:00 2894m 6°C 6_7 0cm 93% 7mph 9mph 1017mB
0:00 2993m 6°C 6_8 0cm 94% 8mph 11mph 1016mB
3:00 3079m 4°C 4_5 0cm 91% 5mph 6mph 1019mB
6:00 3106m 2°C 2_5 0cm 63% 5mph 5mph 1020mB
9:00 3005m 2°C 2_5 0cm 14% 5mph 6mph 1020mB
12:00 2888m 2°C 2_4 0cm 13% 4mph 5mph 1021mB
15:00 3032m 6°C 6_4 0cm 5% 4mph 6mph 1021mB
18:00 3144m 11°C 11_7 0cm 2% 7mph 9mph 1020mB
21:00 3344m 11°C 11_8 0cm 3% 8mph 9mph 1018mB
0:00 3427m 11°C 11_7 0cm 5% 7mph 9mph 1017mB
3:00 3606m 6°C 6_4 0cm 22% 4mph 5mph 1018mB
6:00 3597m 5°C 5_3 0cm 16% 3mph 4mph 1020mB
9:00 3550m 4°C 4_2 0cm 3% 2mph 3mph 1019mB
12:00 3487m 5°C 5_2 0cm 8% 2mph 3mph 1020mB
15:00 3507m 9°C 9_1 0cm 48% 1mph 2mph 1020mB
18:00 3515m 13°C 13_6 0cm 49% 6mph 7mph 1019mB
21:00 3577m 13°C 13_8 0cm 13% 8mph 9mph 1017mB
0:00 3896m 13°C 13_7 0cm 6% 7mph 8mph 1016mB
3:00 3879m 8°C 8_2 0cm 0% 2mph 3mph 1018mB
6:00 3834m 6°C 6_3 0cm 0% 3mph 4mph 1019mB
9:00 3794m 5°C 5_4 0cm 0% 4mph 5mph 1019mB
12:00 3763m 6°C 6_4 0cm 0% 4mph 5mph 1019mB
15:00 3766m 11°C 11_3 0cm 0% 3mph 3mph 1019mB
18:00 3764m 16°C 16_4 0cm 0% 4mph 3mph 1018mB
21:00 3882m 16°C 16_8 0cm 0% 8mph 5mph 1016mB
0:00 3991m 16°C 16_6 0cm 0% 6mph 6mph 1014mB
3:00 4045m 10°C 10_0 0cm 0% 0mph 0mph 1016mB
6:00 4050m 9°C 9_5 0cm 10% 5mph 6mph 1016mB
9:00 4031m 8°C 8_6 0cm 52% 6mph 7mph 1016mB
12:00 4015m 9°C 9_6 0cm 56% 6mph 7mph 1015mB
15:00 3976m 13°C 13_5 0cm 81% 5mph 8mph 1015mB
18:00 3980m 18°C 18_10 0cm 82% 10mph 15mph 1013mB
21:00 4022m 18°C 18_15 0cm 47% 15mph 20mph 1010mB
0:00 4091m 18°C 18_12 0cm 53% 12mph 20mph 1008mB
3:00 4108m 13°C 13_6 0cm 54% 6mph 7mph 1009mB
6:00 4081m 9°C 9_8 0cm 56% 8mph 9mph 1011mB
9:00 3881m 7°C 7_2 0cm 59% 2mph 3mph 1013mB
12:00 3667m 10°C 10_1 0cm 54% 1mph 2mph 1014mB
15:00 3583m 11°C 11_13 0cm 0% 13mph 21mph 1015mB
18:00 3623m 14°C 14_18 0cm 0% 18mph 26mph 1014mB
21:00 3738m 14°C 14_18 0cm 38% 18mph 26mph 1013mB
0:00 3770m 14°C 14_16 0cm 33% 16mph 23mph 1012mB
3:00 3851m 8°C 8_4 0cm 0% 4mph 5mph 1014mB
6:00 3972m 7°C 7_8 0cm 0% 8mph 9mph 1015mB
9:00 3950m 7°C 7_8 0cm 0% 8mph 9mph 1014mB
12:00 3997m 7°C 7_9 0cm 0% 9mph 10mph 1015mB
15:00 3992m 13°C 13_11 0cm 0% 11mph 19mph 1014mB
18:00 3975m 17°C 17_18 0cm 2% 18mph 23mph 1012mB
21:00 4032m 17°C 17_21 0cm 9% 21mph 26mph 1010mB
0:00 4030m 17°C 17_18 0cm 44% 18mph 24mph 1008mB
3:00 4056m 10°C 10_4 0cm 17% 4mph 5mph 1011mB
6:00 3983m 8°C 8_4 0cm 39% 4mph 5mph 1014mB
9:00 3892m 7°C 7_3 0cm 70% 3mph 4mph 1015mB
12:00 3842m 8°C 8_4 0cm 36% 4mph 4mph 1017mB
15:00 3856m 11°C 11_1 0cm 97% 1mph 3mph 1017mB
18:00 3895m 16°C 16_10 0cm 93% 10mph 11mph 1016mB
21:00 3995m 16°C 16_13 0cm 70% 13mph 15mph 1013mB
0:00 4014m 16°C 16_12 0cm 75% 12mph 14mph 1012mB
Afternoon 0mm 0 4077m 16°C 16_9 0cm 57% 9mph 10mph 1014mB
Morning 0mm 0 4131m 7°C 7_16 0cm 85% 16mph 23mph 1010mB
Afternoon 0.00520833mm 0 3950m 17°C 17_10 0cm 90% 10mph 17mph 1012mB
Morning 0.0416667mm 0.4375 4004m 8°C 8_16 0cm 83% 16mph 23mph 1005mB
Afternoon 0.0104167mm 0.0625 3771m 16°C 16_6 0cm 61% 6mph 7mph 1011mB
Morning 0.00520833mm 0.0625 3651m 5°C 5_13 0cm 66% 13mph 14mph 1009mB
Afternoon 0mm 0 3608m 13°C 13_3 0cm 98% 3mph 4mph 1013mB
Morning 0.401042mm 2.0625 3639m 5°C 5_6 0cm 98% 6mph 8mph 1009mB
Afternoon 0.145833mm 0.125 3510m 10°C 10_7 0cm 89% 7mph 7mph 1010mB
Morning 0.265625mm 1.5625 3653m 5°C 5_2 0cm 86% 2mph 3mph 1003mB
Afternoon 0.255208mm 1.625 3492m 11°C 11_4 0cm 90% 4mph 4mph 1006mB
Morning 0.3125mm 2.75 3774m 7°C 7_6 0cm 93% 6mph 9mph 1001mB

16 day outlook at a glance

Forecast issued: 20/04/2019 06:58:24

Chat

Your comments and questions. In a resort? Let us know what it's like!


Characters left 250

For terms and conditions see Readers Comments on the Cookie and privacy policy page.